Location: Bagnolo San Vito
(45.0833°N, 10.8833°E)
Time: 23:37:18
(UTC+00:00)

Cosmos 2366 rocket - Pass Details

Date: 03 March 2021
Orbit: 954 x 998 km, 82.9° (Epoch: 17 April)

Event Time Altitude Azimuth Distance (km) Brightness Sun altitude
Rises 18:20:32 0° 161° (SSE) 3,679 6.8 -13.8°
Reaches altitude 10° 18:23:11 10° 154° (SSE) 2,741 6.1 -14.3°
Maximum altitude 18:28:55 39° 88° (E) 1,462 4.4 -15.3°
Drops below altitude 10° 18:34:44 10° 22° (NNE) 2,774 6.2 -16.3°
Sets 18:37:25 0° 15° (NNE) 3,730 7.0 -16.8°
